Columbus, OH

10:32 PM EDT on April 28, 2017 (GMT -0400)
Port Columbus International

Weather History for KCMH - January, 2013

Change the Weather History Date:

Wednesday, January 30, 2013

  Actual Average Record
Temperature  
Mean Temperature 51 °F 30 °F  
Max Temperature 65 °F 37 °F 65 °F (2013)
Min Temperature 36 °F 23 °F -5 °F (1966)
Degree Days  
Heating Degree Days 14 35  
Month to date heating degree days 978 1066  
Since 1 July heating degree days 2879 3057  
Cooling Degree Days 0 0  
Month to date cooling degree days 0 0  
Year to date cooling degree days 0 0  
Moisture  
Dew Point 48 °F    
Average Humidity 80    
Maximum Humidity 93    
Minimum Humidity 67    
Precipitation  
Precipitation 0.46 in 0.09 in 1.37 in (1947)
Month to date precipitation 2.16 2.65  
Year to date precipitation 2.16 2.65  
Snow  
Snow 0.00 in 0.30 in 3.50 in (1909)
Month to date snowfall 4.9 8.9  
Since 1 July snowfall 20.6 15.0  
Snow Depth 0.00 in    
Sea Level Pressure  
Sea Level Pressure 29.40 in    
Wind  
Wind Speed 19 mph (SSW)    
Max Wind Speed 38 mph    
Max Gust Speed 48 mph    
Visibility 9 miles    
Events Rain    
T = Trace of Precipitation, MM = Missing Value Source: NWS Daily Summary

Daily Weather History Graph

Daily Weather History Graph

Search for Another Location

Airport or City:

Trip Planner

Search our weather history database for the weather conditions in past years. The results will help you decide how hot, cold, wet, or windy it might be!

Date:

Astronomy

Jan. 30, 2013 Rise Set
Actual Time 7:41 AM EST 5:48 PM EST
Civil Twilight 7:12 AM EST 6:17 PM EST
Nautical Twilight 6:40 AM EST 6:49 PM EST
Astronomical Twilight 6:08 AM EST 7:21 PM EST
Moon 9:46 PM EST (1/30) 9:09 AM EST (1/30)
Length of Visible Light 11h 04m
Length of Day
10h 07m
Waning Gibbous, 88% of the Moon is Illuminated
Jan 30
Waning Gibbous
Feb 3
Last Quarter
Feb 10
New
Feb 17
First Quarter
Feb 25
Full

Hourly Weather History & Observations

Time (EST) Temp. Windchill Dew Point Humidity Pressure Visibility Wind Dir Wind Speed Gust Speed Precip Events Conditions
12:51 AM 63.0 °F - 55.0 °F 75% 29.62 in 10.0 mi South 12.7 mph 24.2 mph N/A   Scattered Clouds
1:51 AM 62.1 °F - 54.0 °F 75% 29.57 in 10.0 mi SSE 17.3 mph 23.0 mph N/A   Scattered Clouds
2:51 AM 63.0 °F - 54.0 °F 72% 29.54 in 10.0 mi South 12.7 mph 25.3 mph N/A   Scattered Clouds
3:51 AM 63.0 °F - 53.1 °F 70% 29.49 in 10.0 mi South 19.6 mph 27.6 mph N/A   Scattered Clouds
4:51 AM 64.0 °F - 53.1 °F 67% 29.46 in 10.0 mi South 18.4 mph 29.9 mph N/A   Overcast
5:51 AM 64.9 °F - 53.1 °F 65% 29.40 in 10.0 mi South 23.0 mph 31.1 mph N/A   Overcast
6:51 AM 64.0 °F - 54.0 °F 70% 29.34 in 10.0 mi SSE 24.2 mph 33.4 mph 0.00 in Rain Light Rain
7:32 AM 60.8 °F - 55.4 °F 82% 29.45 in 4.0 mi SW 25.3 mph 48.3 mph 0.10 in Rain Rain
7:51 AM 59.0 °F - 55.9 °F 90% 29.48 in 7.0 mi West 18.4 mph 29.9 mph 0.15 in Rain Rain
8:51 AM 55.9 °F - 54.0 °F 93% 29.50 in 5.0 mi SSE 4.6 mph - 0.10 in Rain Rain
9:51 AM 55.9 °F - 53.1 °F 90% 29.47 in 9.0 mi South 13.8 mph - 0.12 in Rain Light Rain
10:51 AM 57.0 °F - 53.1 °F 87% 29.43 in 10.0 mi South 18.4 mph 24.2 mph 0.03 in   Overcast
11:05 AM 57.2 °F - 53.6 °F 88% 29.45 in 10.0 mi South 19.6 mph - N/A   Overcast
11:51 AM 57.0 °F - 51.1 °F 81% 29.38 in 10.0 mi SSE 18.4 mph - 0.00 in Rain Light Rain
12:20 PM 57.2 °F - 51.8 °F 82% 29.39 in 10.0 mi South 17.3 mph 27.6 mph N/A   Overcast
12:51 PM 57.9 °F - 51.1 °F 78% 29.41 in 10.0 mi South 20.7 mph 28.8 mph N/A   Overcast
1:51 PM 57.0 °F - 52.0 °F 83% 29.39 in 10.0 mi SSW 18.4 mph 27.6 mph 0.00 in   Overcast
2:51 PM 57.0 °F - 52.0 °F 83% 29.34 in 10.0 mi South 13.8 mph 24.2 mph N/A   Mostly Cloudy
2:58 PM 57.2 °F - 51.8 °F 82% 29.35 in 10.0 mi South 12.7 mph 24.2 mph N/A   Overcast
3:51 PM 57.0 °F - 52.0 °F 83% 29.34 in 10.0 mi SSW 12.7 mph - 0.00 in Rain Light Rain
4:28 PM 55.4 °F - 51.8 °F 88% 29.31 in 10.0 mi South 15.0 mph - 0.01 in   Overcast
4:51 PM 57.2 °F - 53.6 °F 88% 29.30 in 10.0 mi South 17.3 mph 25.3 mph N/A   Overcast
4:53 PM 57.2 °F - 53.6 °F 88% 29.30 in 10.0 mi South 16.1 mph - N/A   Overcast
5:51 PM 55.9 °F - 51.1 °F 84% 29.28 in 10.0 mi SSW 18.4 mph 26.5 mph 0.00 in Rain Light Rain
6:51 PM 55.0 °F - 46.9 °F 74% 29.28 in 10.0 mi SSW 20.7 mph 27.6 mph 0.00 in   Overcast
7:51 PM 54.0 °F - 46.9 °F 77% 29.26 in 10.0 mi SSW 20.7 mph 25.3 mph N/A   Overcast
8:43 PM 42.8 °F 32.7 °F 37.4 °F 81% 29.28 in 7.0 mi WNW 27.6 mph 44.9 mph 0.00 in Rain Light Rain
8:51 PM 42.1 °F 31.9 °F 37.9 °F 85% 29.31 in 5.0 mi West 26.5 mph 35.7 mph 0.05 in Rain Light Rain
9:32 PM 39.2 °F 30.8 °F 37.4 °F 93% 29.34 in 10.0 mi West 15.0 mph - 0.05 in Rain Light Rain
9:51 PM 39.9 °F 29.0 °F 34.0 °F 79% 29.34 in 10.0 mi West 26.5 mph 32.2 mph 0.05 in   Overcast
9:58 PM 39.2 °F 29.3 °F 33.8 °F 81% 29.35 in 10.0 mi West 20.7 mph 32.2 mph N/A   Overcast
10:39 PM 39.2 °F 29.8 °F 33.8 °F 81% 29.39 in 10.0 mi West 18.4 mph 24.2 mph N/A   Overcast
10:51 PM 37.9 °F 26.6 °F 32.0 °F 79% 29.41 in 10.0 mi WSW 25.3 mph 35.7 mph 0.00 in Rain Light Rain
11:36 PM 35.6 °F 24.0 °F 28.4 °F 75% 29.44 in 10.0 mi West 23.0 mph 33.4 mph 0.00 in   Overcast
11:51 PM 35.6 °F 23.2 °F 28.4 °F 75% 29.45 in 10.0 mi West 26.5 mph 34.5 mph N/A   Overcast